Cloud_Cover
98 21 24 15 28 26 23 25 26 23 21 21 24 28 6 0 1 100 42 85 100 100 82 100 99 100 5 5 1 0 36 100 53 1 5 0 5 72 26 90 74 33 82 22 100
18 22 23 23 33 29 26 28 54 100 96 94 94 98 41 4 55 100 18 100 99 100 100 100 100 68 43 38 5 0 9 64 77 41 5 5 49 6 7 5 58 48 96 84 90
66 89 27 22 97 39 28 78 94 100 92 100 100 94 100 91 100 100 65 8 6 100 100 100 100 100 100 90 5 0 84 100 80 11 5 67 87 5 3 0 5 100 42 100 91
18 29 23 75 45 64 25 69 98 92 74 86 100 100 72 100 100 99 46 28 7 100 92 100 96 100 96 12 1 1 100 100 92 96 48 7 58 69 2 3 5 6 86 98 100
44 100 90 100 35 24 36 26 9 61 100 100 100 24 72 100 87 100 93 38 14 39 98 71 9 86 100 13 33 34 100 100 100 100 100 53 46 100 99 4 6 8 18 7 8
25 97 87 75 97 33 15 2 5 5 80 64 91 65 100 100 100 100 71 64 85 66 92 78 100 90 19 48 23 5 39 100 100 100 95 10 13 100 100 100 47 4 1 28 99
99 100 100 50 86 95 23 5 1 5 18 30 58 31 24 100 92 38 97 98 62 12 27 100 100 100 98 98 12 52 68 69 77 100 99 7 5 76 25 7 71 74 5 4 100
100 100 100 100 100 36 16 1 4 5 9 0 5 5 70 4 6 96 100 97 98 94 99 100 95 100 100 90 6 3 4 11 99 93 79 6 5 100 5 86 100 32 5 5 13
100 97 94 59 100 12 0 0 5 11 2 3 2 5 5 2 3 5 5 70 100 84 67 100 100 100 100 66 32 95 93 100 81 100 66 12 26 16 98 100 91 5 5 5 2
97 100 100 88 5 4 0 0 3 5 5 1 0 0 2 1 1 5 5 8 33 100 100 100 100 100 100 100 100 91 12 68 100 100 100 100 98 99 100 99 45 5 4 5 5
79 88 100 84 88 36 1 0 2 5 5 5 0 4 0 0 0 0 0 4 5 5 5 65 81 100 100 100 57 5 3 4 34 100 95 100 100 100 88 100 100 5 5 5 5
11 100 100 99 100 100 72 5 4 5 4 16 5 51 11 5 1 0 5 5 5 5 5 73 77 33 5 5 11 5 5 4 5 5 0 4 32 99 100 100 91 12 1 0 0
2 18 34 96 100 100 100 68 48 5 2 8 5 6 35 68 95 100 23 10 5 5 5 22 18 31 33 9 5 5 3 4 0 0 0 0 0 41 99 100 98 45 5 2 0
48 23 100 100 100 100 100 40 6 1 0 4 0 5 84 99 74 100 100 85 84 13 5 97 18 14 72 82 82 66 24 3 0 0 0 0 0 0 82 51 99 95 4 0 0
100 100 90 22 58 100 100 48 5 3 2 0 3 38 0 3 1 4 5 14 31 30 36 100 75 44 5 55 8 5 5 0 0 0 0 0 0 0 0 0 2 0 0 0 0
100 100 94 100 63 35 71 97 6 5 7 11 66 5 5 4 1 0 0 0 3 42 67 78 10 6 5 43 13 37 13 5 4 0 0 0 0 0 0 0 0 0 0 0 0
52 22 95 70 30 98 62 64 25 55 33 83 67 5 11 5 5 2 0 0 0 0 0 1 4 5 5 5 5 5 5 2 0 0 0 0 0 0 0 0 1 4 5 5 5
85 79 60 8 5 48 98 92 13 6 5 10 7 5 5 5 3 0 0 2 0 0 0 0 2 0 0 0 0 0 0 0 0 0 0 0 0 0 0 0 0 5 5 5 0
39 14 51 51 5 5 5 5 5 4 0 0 3 7 38 7 10 76 94 99 88 10 1 0 5 1 5 0 0 0 0 0 1 0 1 1 0 0 0 0 0 1 4 5 8
5 3 0 0 0 1 2 4 1 4 5 5 4 4 6 5 28 42 66 52 69 72 98 5 5 5 5 2 8 2 1 0 4 3 5 2 3 4 3 0 3 5 27 5 87
2 11 4 24 17 22 5 5 5 6 29 20 9 4 1 0 0 0 0 1 2 1 1 5 34 9 65 100 100 90 11 4 2 6 4 0 0 0 4 16 4 4 5 19 34
58 27 13 5 9 2 1 0 0 0 3 77 5 7 5 5 36 21 0 0 0 0 0 2 2 2 100 99 100 95 74 76 99 79 30 19 54 3 5 5 74 35 92 72 100
2 2 0 0 0 0 0 0 0 0 0 3 3 14 9 5 38 58 56 1 0 0 0 0 0 0 0 0 77 100 100 100 100 100 96 100 100 100 94 64 100 96 100 100 100
0 0 0 0 0 0 0 0 0 0 0 0 0 1 3 46 95 83 99 100 32 5 33 32 44 28 5 5 5 37 100 23 100 100 100 94 99 94 100 100 99 100 100 100 100
0 0 0 0 0 0 0 0 0 0 0 0 0 0 0 0 0 1 48 46 66 99 18 71 60 100 100 95 43 9 6 94 8 100 76 100 100 100 100 100 100 100 100 100 100
0 0 0 0 0 0 0 0 0 0 0 0 0 0 0 0 5 9 2 0 0 1 5 26 18 96 90 100 97 28 5 5 3 19 100 100 99 100 100 100 100 100 100 100 100
0 0 0 0 0 0 0 0 0 0 0 0 0 0 0 0 0 60 33 0 0 0 0 0 1 0 0 1 81 45 92 77 5 5 10 50 10 100 100 100 100 100 100 100 100